Wind_Speed
39 40 42 43 43 44 44 45 45 45 44 45 43 44 44 44 43 44 44 43 42 42 40 39 38 37 36 36 36 36 37 38 38 37 37 37 37 38 39 39 40 40 41
37 38 40 42 42 42 43 44 44 45 43 44 45 43 43 43 43 43 43 42 43 42 42 41 39 39 37 35 35 36 36 37 37 37 37 37 37 38 38 39 39 40 40
35 36 38 40 40 40 40 42 43 43 43 43 44 44 43 43 43 43 42 41 41 41 41 40 40 39 38 36 36 36 37 37 37 37 37 37 37 37 38 38 38 39 39
33 34 35 37 39 38 39 40 41 42 43 42 42 43 43 43 44 44 43 41 40 40 40 40 39 39 38 37 38 38 38 37 37 36 36 36 36 36 37 37 37 37 38
33 33 34 36 38 39 39 39 40 41 42 42 42 42 42 42 43 43 43 41 41 41 40 39 39 38 38 38 39 39 39 38 37 37 36 36 35 35 36 36 36 37 37
32 32 33 34 35 37 37 37 38 39 40 41 41 40 39 39 40 41 41 41 41 40 40 40 39 39 38 38 38 40 40 39 39 38 37 36 35 35 35 36 37 37 36
30 31 32 33 33 34 35 36 36 37 37 38 37 37 37 37 38 39 39 39 40 40 40 40 39 39 39 39 38 39 39 39 38 38 36 36 35 35 36 36 37 37 36
28 29 30 31 32 33 33 33 35 35 35 35 35 37 37 37 37 38 38 39 39 39 38 38 38 38 39 38 38 37 37 37 36 36 36 36 36 36 35 36 36 35 34
26 27 28 30 31 32 32 32 33 33 33 34 35 36 37 37 36 36 36 37 38 38 38 37 35 35 36 37 36 36 35 35 36 35 35 35 35 34 34 34 33 32 32
26 27 28 28 29 31 31 31 32 33 33 33 34 34 35 36 35 34 35 35 36 37 36 36 34 34 34 34 35 36 35 34 34 34 33 33 32 32 32 32 31 31 31
26 25 25 26 27 28 29 29 31 32 32 32 33 33 33 33 34 34 34 34 34 35 35 34 34 33 33 34 34 33 32 32 32 33 33 32 31 32 32 31 31 31 31
25 25 25 26 26 27 28 28 29 30 31 32 32 32 32 33 33 34 35 35 33 33 34 34 34 33 33 33 32 31 31 31 31 31 31 31 31 31 31 30 30 30 30
24 24 25 26 27 27 27 28 28 29 30 30 31 31 31 32 33 33 34 35 34 33 33 33 33 32 31 30 30 29 29 30 30 30 30 30 30 30 31 29 29 29 29
24 24 24 25 26 26 27 28 28 29 29 30 30 30 30 30 31 31 32 33 33 33 32 32 32 31 30 30 30 29 28 28 28 28 29 30 30 30 29 28 28 28 26
23 24 24 24 25 26 26 26 26 27 28 29 29 29 30 30 29 29 30 30 30 30 31 31 31 30 29 29 29 29 29 28 28 29 28 28 28 28 27 26 26 25 24
22 23 23 23 24 24 24 25 25 25 26 27 28 28 28 29 28 28 29 29 29 30 30 31 31 30 29 28 28 29 29 29 28 28 28 27 26 25 24 23 23 22 21
21 22 23 23 24 24 24 24 24 25 25 25 26 27 28 28 28 28 28 29 29 29 29 30 30 30 30 29 29 28 28 28 28 27 26 25 24 24 23 22 21 20 19
21 21 22 23 24 24 24 24 24 25 25 25 26 26 27 27 27 27 28 28 28 27 27 28 28 29 29 29 28 28 28 28 27 26 25 24 24 23 21 19 18 17 16
20 21 22 23 24 24 24 24 24 24 25 25 25 25 25 25 25 25 25 25 25 25 25 26 27 27 28 27 27 27 26 25 25 24 24 23 23 21 19 18 17 15 14
20 20 21 21 22 23 23 23 23 24 23 23 23 24 24 24 24 24 23 23 23 23 24 25 25 26 27 26 26 25 25 24 23 22 22 22 20 19 18 16 15 14 14
19 19 20 20 20 21 21 21 22 22 22 22 23 23 24 23 23 22 22 21 21 21 22 23 23 24 25 24 24 24 23 22 22 21 20 19 18 18 17 15 14 14 14
18 18 18 18 19 19 20 20 21 21 22 22 22 23 23 22 22 21 21 20 20 20 20 20 21 21 21 22 22 22 21 20 20 19 19 18 17 17 16 15 14 14 13
17 16 16 17 17 18 18 18 19 19 19 20 20 21 21 21 21 21 20 20 20 19 19 18 18 18 18 19 19 19 19 18 18 17 17 16 16 16 15 15 15 14 13
16 16 15 15 16 17 18 18 18 19 19 19 19 20 20 20 20 20 20 19 18 18 18 17 17 17 17 17 17 17 17 17 17 16 16 15 15 14 14 13 13 13 13
16 16 16 16 16 17 17 17 17 18 18 18 18 20 20 20 19 19 19 18 18 18 17 17 17 17 17 16 16 16 16 16 16 15 15 15 14 13 13 12 12 11 11
17 16 16 16 16 17 17 17 17 17 17 17 18 18 19 19 19 18 18 18 18 18 17 17 16 16 15 15 15 15 15 14 14 14 14 13 13 12 12 12 11 11 11
Wind_Direction
248 248 246 245 244 243 243 245 246 246 246 246 247 247 247 248 249 250 251 251 254 255 256 259 261 263 267 269 269 270 273 277 279 281 283 283 283 285 287 290 292 294 296
250 248 248 247 246 245 244 245 246 246 246 246 246 246 246 247 248 250 250 253 255 255 256 259 261 263 265 266 267 269 273 277 278 280 283 283 284 285 288 291 292 295 298
251 249 247 247 246 244 243 244 245 246 247 247 247 247 246 247 248 249 250 253 254 254 254 257 259 261 262 265 267 269 273 277 279 281 283 285 286 287 290 292 293 295 299
253 249 248 247 244 244 244 246 247 247 247 247 246 247 247 247 248 250 250 251 251 253 254 257 259 261 262 264 267 270 273 276 279 282 283 285 287 289 291 292 293 296 298
253 250 249 248 246 246 246 247 248 248 247 246 246 247 247 247 248 250 251 251 252 252 254 256 259 261 263 264 266 269 271 274 278 281 283 285 287 289 290 291 293 296 297
253 249 248 248 248 248 248 248 249 249 248 247 246 245 246 247 248 250 251 251 251 251 252 256 260 261 264 266 267 269 271 273 277 279 282 284 287 289 290 291 294 295 296
254 251 249 249 249 248 248 250 248 248 247 246 244 244 246 248 248 249 251 251 251 251 252 255 260 262 263 266 268 270 271 274 276 278 281 283 286 288 290 292 294 296 296
254 252 250 247 246 247 248 247 246 245 244 244 247 245 247 249 250 250 250 251 251 251 253 255 258 260 261 265 268 271 272 273 276 278 281 284 286 288 290 292 293 294 296
253 252 250 248 247 246 246 246 245 244 244 246 247 247 248 250 252 251 249 249 249 250 252 255 258 259 260 264 266 269 271 273 276 279 282 284 286 288 290 291 292 293 294
256 254 252 250 247 246 246 247 246 245 245 245 245 247 250 251 250 249 249 248 248 249 251 254 257 259 260 262 265 268 270 273 275 278 281 283 284 287 290 291 292 292 293
256 255 254 251 248 246 246 246 246 246 246 245 245 248 250 250 250 249 247 247 248 250 252 253 255 257 260 262 266 267 269 271 274 277 279 281 282 284 288 290 291 292 294
254 254 253 248 246 246 247 248 248 247 246 244 244 246 247 247 248 249 247 247 249 250 252 254 256 258 261 264 266 267 268 270 273 275 278 279 281 283 286 289 290 292 294
254 253 252 248 248 249 248 249 249 247 246 244 245 246 246 246 247 248 247 247 249 251 254 256 258 260 262 263 264 266 267 269 271 275 278 280 281 284 286 287 289 291 293
254 253 253 250 249 249 249 249 249 247 246 245 245 245 244 244 245 247 247 248 250 252 254 255 257 259 262 262 264 265 267 270 272 276 279 279 281 283 285 286 288 290 290
254 252 251 251 249 248 247 248 248 248 248 246 245 245 244 244 245 247 248 249 250 251 252 253 255 259 261 263 263 263 265 270 273 276 278 279 280 282 283 284 286 286 288
252 250 250 249 248 247 248 249 249 248 247 246 244 244 244 245 246 248 249 251 252 253 254 255 257 259 259 260 262 263 265 268 271 274 276 278 280 279 280 282 284 285 288
254 250 251 250 249 248 249 250 250 249 248 246 244 244 245 247 248 248 250 252 254 254 255 257 258 257 257 260 262 262 265 267 269 271 273 274 276 277 278 280 281 283 286
256 254 254 251 250 250 251 250 250 248 247 247 247 245 245 247 248 249 250 250 251 253 255 255 254 255 257 258 260 262 264 265 266 267 269 271 272 274 274 277 279 281 283
260 258 257 255 252 251 250 250 248 245 245 246 246 243 243 245 246 248 249 249 249 248 251 252 253 252 254 257 260 262 263 264 264 264 266 267 268 270 270 272 274 276 281
263 261 260 257 254 252 250 249 246 244 245 245 244 241 240 242 243 245 247 247 247 248 251 252 253 254 254 255 257 259 260 260 260 261 264 264 264 264 265 265 268 272 277
264 262 259 256 253 251 248 246 244 243 244 245 243 240 239 239 241 243 243 243 246 250 253 254 254 255 254 254 255 256 256 257 256 258 259 260 260 260 260 261 264 271 275
263 260 257 253 251 248 246 246 246 244 244 244 243 240 237 237 238 239 241 242 244 250 254 254 255 255 254 254 255 255 254 253 252 254 255 256 257 257 257 258 262 269 273
267 261 256 252 249 245 244 244 243 241 242 243 240 235 234 234 234 237 240 242 245 249 251 254 255 254 254 253 251 250 249 248 249 250 249 249 251 253 254 256 260 265 270
266 260 256 254 250 246 245 244 243 242 242 241 236 232 233 232 234 236 239 242 244 247 249 251 254 257 256 252 247 244 244 245 245 243 244 246 248 252 255 257 260 265 271
264 259 256 255 253 248 245 242 241 240 238 235 233 231 232 233 235 237 239 241 245 247 248 251 254 255 251 246 241 237 236 237 238 239 242 243 246 251 255 257 259 263 271
263 258 255 255 254 250 246 244 242 238 236 235 233 232 232 233 235 236 238 241 244 246 248 250 248 245 242 238 235 232 230 228 230 235 240 244 249 251 253 255 258 264 271
Height
5611 5613 5615 5618 5621 5625 5629 5633 5637 5640 5644 5648 5651 5654 5657 5660 5663 5666 5669 5671 5674 5676 5678 5680 5682 5683 5684 5685 5684 5684 5684 5683 5683 5682 5679 5677 5674 5672 5669 5666 5663 5660 5656
5601 5603 5606 5609 5612 5615 5619 5623 5626 5630 5633 5637 5640 5643 5646 5650 5653 5656 5659 5662 5665 5667 5669 5671 5672 5674 5675 5675 5675 5675 5675 5674 5673 5672 5670 5667 5665 5663 5660 5658 5654 5651 5647
5591 5594 5596 5599 5603 5606 5609 5613 5616 5620 5623 5626 5630 5633 5637 5640 5643 5646 5649 5652 5655 5657 5659 5661 5663 5664 5666 5666 5666 5666 5665 5664 5664 5663 5661 5659 5656 5653 5651 5648 5645 5641 5637
5582 5585 5587 5590 5594 5597 5600 5603 5606 5610 5613 5617 5620 5624 5627 5631 5634 5637 5640 5642 5645 5648 5649 5651 5653 5655 5656 5656 5657 5657 5656 5655 5654 5653 5652 5650 5648 5644 5642 5639 5636 5632 5629
5574 5577 5579 5582 5585 5588 5591 5594 5597 5600 5604 5607 5610 5614 5617 5621 5624 5627 5630 5633 5635 5638 5640 5642 5644 5645 5646 5647 5647 5647 5647 5646 5645 5644 5643 5641 5639 5636 5634 5631 5628 5625 5621
5567 5569 5571 5574 5576 5579 5582 5585 5588 5591 5594 5598 5601 5605 5608 5611 5614 5617 5620 5623 5625 5628 5630 5633 5634 5636 5636 5637 5638 5638 5637 5637 5636 5635 5634 5632 5630 5628 5625 5622 5619 5616 5613
5559 5561 5564 5566 5568 5571 5573 5576 5579 5582 5585 5589 5592 5596 5599 5601 5605 5607 5610 5613 5616 5618 5621 5623 5625 5626 5627 5627 5628 5628 5628 5627 5627 5626 5625 5623 5621 5619 5617 5614 5610 5607 5604
5553 5555 5557 5559 5561 5563 5565 5568 5571 5574 5577 5580 5583 5586 5589 5592 5595 5598 5601 5604 5606 5609 5611 5613 5615 5616 5617 5618 5619 5619 5618 5618 5617 5617 5616 5614 5612 5610 5608 5605 5602 5599 5596
5547 5548 5550 5552 5554 5555 5558 5560 5563 5565 5568 5571 5575 5578 5580 5583 5586 5589 5592 5594 5597 5600 5602 5604 5606 5607 5608 5609 5610 5610 5610 5609 5608 5607 5606 5605 5603 5601 5598 5596 5593 5590 5588
5540 5541 5543 5544 5546 5548 5550 5552 5555 5557 5560 5563 5566 5569 5572 5575 5578 5580 5583 5586 5589 5591 5593 5595 5597 5598 5598 5599 5600 5601 5601 5600 5599 5598 5597 5596 5594 5592 5590 5587 5585 5582 5579
5533 5534 5535 5537 5539 5541 5543 5545 5547 5550 5553 5555 5558 5561 5564 5566 5569 5571 5574 5577 5579 5582 5584 5585 5587 5588 5589 5590 5591 5591 5591 5591 5590 5589 5588 5587 5586 5584 5581 5579 5577 5574 5571
5525 5527 5528 5530 5532 5534 5536 5538 5540 5542 5545 5547 5550 5553 5555 5558 5561 5563 5565 5568 5570 5573 5575 5577 5578 5579 5580 5581 5582 5582 5582 5582 5581 5581 5580 5579 5578 5576 5574 5571 5569 5566 5563
5518 5520 5521 5523 5524 5526 5528 5530 5532 5534 5537 5539 5542 5545 5547 5550 5552 5554 5557 5559 5561 5564 5566 5568 5569 5571 5572 5572 5573 5573 5573 5573 5573 5573 5572 5571 5569 5568 5566 5564 5561 5559 5556
5512 5513 5514 5515 5517 5519 5521 5522 5524 5527 5529 5531 5534 5537 5539 5542 5544 5546 5548 5550 5553 5555 5557 5558 5560 5562 5563 5564 5565 5565 5565 5566 5565 5565 5564 5563 5561 5560 5558 5556 5554 5552 5549
5505 5506 5507 5508 5510 5511 5513 5515 5517 5519 5521 5524 5526 5529 5531 5534 5536 5538 5540 5542 5544 5546 5548 5550 5552 5553 5555 5556 5557 5557 5557 5558 5557 5557 5556 5555 5554 5552 5551 5549 5547 5545 5543
5498 5499 5500 5502 5503 5504 5506 5508 5509 5512 5514 5515 5518 5520 5523 5525 5527 5530 5532 5534 5536 5538 5540 5542 5544 5545 5547 5548 5549 5549 5549 5550 5549 5549 5548 5548 5547 5545 5544 5542 5541 5539 5537
5492 5493 5494 5495 5496 5498 5499 5501 5502 5504 5506 5508 5510 5512 5515 5517 5520 5522 5524 5526 5528 5530 5532 5534 5536 5537 5539 5540 5541 5541 5542 5542 5542 5541 5541 5540 5540 5539 5537 5536 5535 5534 5532
5486 5486 5487 5488 5489 5491 5492 5494 5495 5497 5499 5500 5502 5505 5507 5509 5512 5514 5516 5518 5520 5522 5524 5526 5527 5529 5530 5532 5532 5533 5533 5533 5534 5534 5534 5533 5533 5532 5531 5531 5530 5529 5528
5479 5480 5480 5481 5482 5483 5485 5486 5488 5490 5491 5493 5495 5497 5499 5502 5504 5507 5508 5511 5513 5515 5517 5518 5520 5521 5523 5524 5524 5525 5525 5525 5526 5526 5527 5527 5527 5527 5526 5526 5526 5525 5524
5473 5473 5474 5474 5475 5476 5477 5479 5481 5482 5484 5486 5488 5490 5492 5495 5497 5500 5502 5504 5506 5508 5510 5511 5513 5514 5515 5516 5517 5517 5518 5519 5519 5520 5520 5521 5521 5521 5522 5522 5521 5521 5521
5466 5467 5467 5467 5468 5469 5471 5472 5474 5476 5477 5479 5481 5483 5485 5488 5491 5493 5496 5498 5500 5502 5503 5504 5505 5506 5507 5508 5510 5510 5511 5512 5513 5514 5515 5515 5516 5516 5517 5517 5517 5517 5517
5460 5460 5461 5461 5462 5463 5465 5466 5467 5469 5470 5472 5474 5476 5479 5482 5484 5487 5489 5492 5494 5496 5497 5498 5499 5500 5501 5502 5503 5504 5505 5506 5507 5508 5509 5510 5511 5512 5512 5513 5513 5513 5513
5454 5454 5455 5455 5456 5457 5459 5460 5461 5463 5464 5466 5467 5470 5472 5475 5478 5481 5484 5486 5488 5489 5491 5492 5493 5494 5494 5495 5497 5498 5500 5501 5502 5503 5504 5505 5506 5507 5508 5509 5509 5509 5509
5449 5449 5450 5450 5451 5452 5453 5454 5456 5457 5459 5460 5462 5464 5467 5470 5473 5476 5478 5480 5482 5483 5485 5486 5487 5488 5488 5489 5491 5492 5494 5496 5497 5499 5500 5502 5503 5503 5504 5504 5505 5505 5505
5444 5444 5445 5445 5446 5447 5448 5449 5450 5452 5453 5455 5457 5460 5462 5465 5467 5470 5472 5474 5476 5478 5479 5480 5481 5482 5483 5484 5486 5487 5489 5491 5493 5495 5496 5498 5499 5500 5500 5501 5501 5501 5502
5438 5439 5439 5440 5441 5442 5443 5444 5445 5447 5449 5450 5453 5455 5457 5460 5462 5465 5467 5469 5471 5472 5474 5475 5476 5477 5478 5479 5481 5483 5485 5487 5489 5490 5492 5494 5495 5496 5496 5497 5497 5498 5498